Startseite

Hier einige der aktuellen Wetterdaten aus Weinheim, 5 minütlich aus meiner Wetterstation vom Balkon 😉

Wetter in Weinheim / Weinheim Weather …

Daten vom:04.12.2022 13:20

Temp: 3.2 ° C

Feuchte:93 %

Regen heute:0mm

Regen Woche: 0 mm

Regen Monat: 2 mm

Regen Jahr : 718.3 mm

Sun 04.12.2022, Sonnenaufgang : 08:08

Sun 04.12.2022, Sonnenuntergang : 16:22

Minimaltemperatur der letzten 24 Stunden: 0.6 ° C am 03.12.2022 08:30

Maximaltemperatur der letzten 24 Stunden 4.3 ° C am 03.12.2022 15:00

Letzter registrierter Niederschlag :-02.12.2022 20:05

Datum TemperaturFeuchte Regenrate TagesNs. WindBoe
04.12.2022 13:203.2 C 93 %0000
04.12.2022 11:403.7 C 89 %0000
04.12.2022 09:052.9 C 90 %000.50.5
04.12.2022 07:252.7 C 89 %0000
04.12.2022 04:552.2 C 89 %0000
04.12.2022 03:052.1 C 89 %0000
04.12.2022 00:352.1 C 88 %0000
03.12.2022 22:252.5 C 87 %001.82
03.12.2022 20:203 C 87 %001.21.5
03.12.2022 18:203.6 C 86 %0000
03.12.2022 16:103.9 C 85 %0000
03.12.2022 14:004 C 86 %001.52
03.12.2022 10:503.7 C 85 %0011
03.12.2022 08:350.7 C 96 %0000
03.12.2022 06:302.1 C 93 %0000
03.12.2022 04:402.3 C 91 %0000
03.12.2022 02:252.7 C 93 %0000
03.12.2022 00:002.6 C 92 %0200
02.12.2022 21:552.4 C 93 %0200
02.12.2022 19:402.4 C 94 %01.700
02.12.2022 17:302.6 C 94 %01.500
02.12.2022 15:253 C 94 %01.500
02.12.2022 13:203.3 C 96 %01.20.40.5
02.12.2022 10:303.1 C 96 %000.20.5
02.12.2022 06:503.7 C 92 %0000

Wetterstation ist im IPV6 Tunnel stecken geblieben…. 2 be back soon

Feinstaub Sensor :

Der Server holt alle 5 Minuten Daten von der Wetterstation ab.

kachelmannwetter.com

https://childthemewp.com